^^
Meteo Knjazevac Station Historical Data
Daily Summary for March 10, 2021 Units:  English    Metric   Both
Daily Weekly Monthly Yearly Custom
  High: Low: Average:
Temperature: 71.2 °F 64.2 °F 67.5 °F
Dew Point: 61.2 °F 59.3 °F 60.3 °F
Humidity: 84% 70% 78%
Wind Speed: 2mph 0mph 0.6mph
Wind Gust: 5mph - -
Wind- - WNW
Pressure: 30.12 in 30.11 in -
Precipitation: 0.00 in    
Historical Graphs
 
 
Tabular Data for March 10, 2021
Time Temperature Dew Point Pressure Wind Wind Speed Wind Gust Humidity Rainfall Rate (Hourly) solar Conditions
00:00 71.2 °F 61 °F 30.12 in West 1 mph 2 mph 70% 0.00 in 0 W/m2
00:10 70.9 °F 61.1 °F 30.12 in Calm   1 mph 71% 0.00 in 0 W/m2
00:20 70.7 °F 60.8 °F 30.12 in NW 1 mph 2 mph 71% 0.00 in 0 W/m2
00:30 70.7 °F 61.2 °F 30.12 in Calm   1 mph 72% 0.00 in 0 W/m2
00:40 70.7 °F 61.2 °F 30.11 in Calm   1 mph 72% 0.00 in 0 W/m2
00:50 70.2 °F 61.1 °F 30.11 in Calm   2 mph 73% 0.00 in 0 W/m2
01:00 70 °F 60.9 °F 30.11 in NW 1 mph 2 mph 73% 0.00 in 0 W/m2
01:10 69.4 °F 60.8 °F 30.11 in Calm   2 mph 74% 0.00 in 0 W/m2
01:20 69.1 °F 60.4 °F 30.11 in Calm   2 mph 74% 0.00 in 0 W/m2
01:30 68.5 °F 60.2 °F 30.11 in NW 1 mph 2 mph 75% 0.00 in 0 W/m2
01:40 68 °F 60.5 °F 30.11 in West 1 mph 5 mph 77% 0.00 in 0 W/m2
01:50 68 °F 60.5 °F 30.11 in WNW 1 mph 4 mph 77% 0.00 in 0 W/m2
02:00 67.8 °F 60.7 °F 30.11 in Calm   2 mph 78% 0.00 in 0 W/m2
02:10 67.5 °F 60.4 °F 30.11 in NNW 1 mph 1 mph 78% 0.00 in 0 W/m2
02:20 67.1 °F 60.4 °F 30.12 in Calm   2 mph 79% 0.00 in 0 W/m2
02:30 67.1 °F 60.4 °F 30.11 in Calm   2 mph 79% 0.00 in 0 W/m2
02:40 66.9 °F 60.2 °F 30.11 in Calm     79% 0.00 in 0 W/m2
02:50 66.7 °F 60 °F 30.11 in Calm     79% 0.00 in 0 W/m2
03:00 66.7 °F 60.4 °F 30.11 in Calm   1 mph 80% 0.00 in 0 W/m2
03:10 66.6 °F 60.2 °F 30.11 in WSW 1 mph 2 mph 80% 0.00 in 0 W/m2
03:20 66.1 °F 59.7 °F 30.11 in West 2 mph 2 mph 80% 0.00 in 0 W/m2
03:30 65.7 °F 59.8 °F 30.12 in WNW 1 mph 2 mph 81% 0.00 in 0 W/m2
03:40 65.5 °F 59.5 °F 30.12 in WSW 1 mph 3 mph 81% 0.00 in 0 W/m2
03:50 64.9 °F 59.7 °F 30.11 in WSW 2 mph 3 mph 83% 0.00 in 0 W/m2
04:00 64.8 °F 59.8 °F 30.11 in West 2 mph 4 mph 84% 0.00 in 0 W/m2
04:10 64.8 °F 59.8 °F 30.12 in West 2 mph 3 mph 84% 0.00 in 0 W/m2
04:20 64.8 °F 59.8 °F 30.12 in NW 1 mph 3 mph 84% 0.00 in 0 W/m2
04:30 64.8 °F 59.8 °F 30.12 in Calm   4 mph 84% 0.00 in 0 W/m2
04:40 64.6 °F 59.6 °F 30.12 in Calm   1 mph 84% 0.00 in 0 W/m2
04:50 64.2 °F 59.3 °F 30.12 in Calm   1 mph 84% 0.00 in 0 W/m2
Knjazevac, Serbia
Compliments of Weather Underground - 2 mb